STARLINK-31938, 59865

Orbit data source: Space-Track

STARLINK-31938, 59865 is a payload satellite owned by SpaceX/Seattle (US) in LEO that was launched on Fri, 24 May 2024 UTC via an FALCON 9 launch vehicle from the Air Force Eastern Test Range (AFETR). Payload-class satellites include a variety of spacecraft equipped with specific instruments for various scientific and technological missions. These include communications satellites like Starlink; space stations such as the ISS; scientific satellites like the Hubble; Earth observation satellites from companies like Planet Labs, Umbra, and HawkEye 360; GPS; miniature CubeSats for education and research; and military/defense satellites.

Loading next visibility...
Identifier
59865, 2024-098H
Orbit
LEO
Country
Flag of USUS
Related business
Manufacturer
SpaceX/Seattle
Mission
Operational Commercial Communications
Bus & Motor
STARLINK V2M, Unknown motor
Mass
730 kg wet, ~700 kg dry
Launch date (UTC)
2024-05-24 (2 years ago)
Launch vehicle
FALCON 9
Launch site
Air Force Eastern Test Range (AFETR)
Object type
Payload
Rocket body
Debris
Shape & HBR
Box + 2 Pan, 17.7 m
Radar Cross Section
33.884 m², Large (>1 m²)

Expand to show TLE details & history
Last TLE update: 2 days ago

TLE from 2 days ago
0 STARLINK-31938
1 59865U 24098H   26171.37391541  .00001856  00000-0  76970-4 0  9999
2 59865  43.0008  57.8037 0000935 265.5395  94.5350 15.27572519117551
Epoch: 2026-06-20T08:58Z
TLE epoch observation values (Epoch: 2026-06-20T08:58:26.291Z)
Latitude
-0.00001°
Longitude
14.60469°
Altitude
482.898 km
Speed
7.626 km/s
True Right ascension
03h 51m 12s
True Declination
0° 00' 00"
Sunlit
Object was in daylight at epoch
Visualization orbit readout
Latitude
Unknown
Longitude
Unknown
Altitude
Unknown
Speed
Unknown
Apparent Right ascension
Unknown
Apparent Declination
Unknown
Sunlit
N/A
Visualization observer readout
Local Sidereal Time
21:26:59
Azimuth
Unknown
Elevation
Unknown
Doppler factor
Unknown
Orbital elements
Apogee altitude
485.658 km
Perigee altitude
484.375 km
Semi-major axis
6,863.154 km
Eccentricity
0.00009
Inclination
43.0008°
RAAN
57.8037°
Arg. of periapsis
265.5395°
True anomaly
94.54568°
Mean anomaly
94.535°
Eccentric anomaly
94.54034°
Mean motion
3.81731 °/min
Orbital period
94.31 mins
BSTAR
0.00007697
Loading maneuver chart data...
Computing Atmospheric mass density...
Loading historical data...
Loading historical data...
Loading historical data...
Loading historical data...
Loading historical data...
Loading historical data...
Loading historical data...

Documentation

Showing up to 5 results
|